Location: G�ppingen
(48.7000°N, 9.6670°E)
Time: 16:01:27
(UTC+02:00)

Amateur Radio Satellites - All Passes

Search period start: 24 June 2017 15:31
Search period end: 25 June 2017 15:31
Location: G�ppingen, 48.7000°N, 9.6670°E

Satellite Date Start Highest point End Downlink Frequencies (MHz)
Time Altitude Azimuth
BEESAT 24 Jun 15:35:29 15:39:09 21° 92° (E) 15:42:47 436.000
VELOX 1 24 Jun 15:37:45 15:40:14 15° 302° (WNW) 15:42:43 145.980
50 SAT 24 Jun 15:41:31 15:43:23 14° 298° (WNW) 15:45:15 437.505
AO-7 24 Jun 15:41:40 15:50:01 88° 70° (ENE) 15:58:26 .
ITAMSAT 1 24 Jun 15:47:43 15:52:56 88° 74° (ENE) 15:58:12 435.822/435.867
ISS 24 Jun 15:52:05 15:55:14 41° 211° (SSW) 15:58:22 437.550
Tancredo 1 24 Jun 15:52:13 15:54:41 22° 217° (SW) 15:57:08 437.200
Gurwin Techsat 1B 24 Jun 15:57:53 16:00:46 15° 273° (W) 16:03:40 435.225
DX 1 24 Jun 16:01:47 16:05:04 21° 298° (WNW) 16:08:21 434.975-435.025
UKube-1 24 Jun 16:22:18 16:25:21 19° 299° (WNW) 16:28:25 .
PCSat 24 Jun 16:25:47 16:28:57 15° 338° (NNW) 16:32:07 145.827
SO-50 24 Jun 16:28:06 16:32:37 63° 313° (NW) 16:37:07 436.795
CUTE-I 24 Jun 16:44:06 16:46:00 12° 50° (NE) 16:47:54 437.470
MOZHAYETS 4 24 Jun 16:56:40 17:01:18 82° 103° (ESE) 17:05:52
ITUPSAT 1 24 Jun 17:01:25 17:06:13 68° 288° (WNW) 17:10:58 437.325
KKS-1 24 Jun 17:05:56 17:08:33 15° 90° (E) 17:11:09 437.445
XW-2F 24 Jun 17:08:21 17:09:19 11° 58° (ENE) 17:10:17 145.980 - 146.000
XW-2D 24 Jun 17:10:33 17:12:08 12° 60° (ENE) 17:13:45 145.860 - 145.880
BEESAT 24 Jun 17:12:34 17:17:14 53° 290° (WNW) 17:21:52 436.000
LilacSat-2 24 Jun 17:16:19 17:18:27 15° 61° (ENE) 17:20:36 437.200
XW-2B 24 Jun 17:18:55 17:21:02 14° 61° (ENE) 17:23:08 145.730 - 145.750
ITAMSAT 1 24 Jun 17:30:20 17:33:07 14° 273° (W) 17:35:55 435.822/435.867
HO-68 24 Jun 17:30:52 17:35:14 17° 45° (NE) 17:39:35 435.675
XW-2C 24 Jun 17:33:27 17:36:18 20° 64° (ENE) 17:39:08 145.795 - 145.815
CUBESAT XI-V 24 Jun 17:33:37 17:37:58 40° 97° (E) 17:42:17 437.345
AO-7 24 Jun 17:37:31 17:43:50 23° 270° (W) 17:50:14 .
STARS 24 Jun 17:40:01 17:42:31 15° 89° (E) 17:45:01 437.465
DOVE 4 24 Jun 17:42:41 17:46:43 52° 71° (ENE) 17:50:55 437.250
KAITUO 1B 24 Jun 17:51:07 17:54:10 23° 66° (ENE) 17:57:12 145.475/437.950
SO-50 24 Jun 18:10:51 18:13:56 18° 334° (NNW) 18:17:01 436.795
PCSat 24 Jun 18:13:19 18:14:49 11° 5° (N) 18:16:20 145.827
CUTE-I 24 Jun 18:19:47 18:25:01 61° 70° (ENE) 18:30:17 437.470
NUDT-PHONESAT 24 Jun 18:28:12 18:31:54 57° 73° (ENE) 18:35:37 437.300
MOZHAYETS 4 24 Jun 18:35:14 18:37:51 15° 303° (WNW) 18:40:27
XW-2F 24 Jun 18:39:00 18:42:50 86° 253° (WSW) 18:46:41 145.980 - 146.000
KKS-1 24 Jun 18:41:06 18:45:34 69° 288° (WNW) 18:50:01 437.445
ITUPSAT 1 24 Jun 18:41:34 18:43:10 12° 308° (NW) 18:44:45 437.325
XW-2D 24 Jun 18:41:57 18:45:48 75° 258° (WSW) 18:49:39 145.860 - 145.880
LilacSat-2 24 Jun 18:48:28 18:52:18 61° 259° (W) 18:56:08 437.200
XW-2B 24 Jun 18:50:58 18:54:46 61° 260° (W) 18:58:35 145.730 - 145.750
SEEDS 24 Jun 18:55:15 18:58:11 19° 62° (ENE) 19:01:07 437.485
CUBEBUG 2 24 Jun 19:05:38 19:09:10 22° 61° (ENE) 19:12:46 437.445
XW-2C 24 Jun 19:06:37 19:10:15 40° 262° (W) 19:13:54 145.795 - 145.815
CUTE 1.7 + AOD 2 24 Jun 19:08:46 19:12:39 36° 68° (ENE) 19:16:33 437.475
CUBESAT XI-V 24 Jun 19:11:20 19:15:11 27° 296° (WNW) 19:19:02 437.345
HO-68 24 Jun 19:14:35 19:21:40 64° 67° (ENE) 19:28:47 435.675
STARS 24 Jun 19:14:54 19:19:21 69° 287° (WNW) 19:23:45 437.465
DOVE 4 24 Jun 19:22:03 19:24:49 17° 271° (W) 19:27:38 437.250
KAITUO 1B 24 Jun 19:24:37 19:28:03 32° 264° (W) 19:31:29 145.475/437.950
Oscar 11 24 Jun 19:37:32 19:39:06 12° 56° (ENE) 19:40:40 .
XW-2A 24 Jun 19:40:32 19:43:53 54° 73° (ENE) 19:47:17 145.665 - 145.685
ZACube-1 24 Jun 19:40:58 19:44:05 18° 60° (ENE) 19:47:13 437.345
UWE-3 24 Jun 19:41:48 19:45:45 29° 65° (ENE) 19:49:46 435.000/436.395/437.385
AAUSAT CUBESAT 2 24 Jun 19:49:38 19:53:15 30° 67° (ENE) 19:56:53 437.432
SO-50 24 Jun 19:55:12 19:56:14 11° 359° (N) 19:57:15 436.795
PCSat 24 Jun 19:56:25 20:00:27 20° 31° (NNE) 20:04:28 145.827
CUTE-I 24 Jun 20:01:23 20:05:28 22° 269° (W) 20:09:36 437.470
NUDT-PHONESAT 24 Jun 20:04:17 20:06:09 13° 271° (W) 20:08:01 437.300
KKS-1 24 Jun 20:20:23 20:21:18 11° 306° (NW) 20:22:13 437.445
SEEDS 24 Jun 20:29:25 20:33:31 52° 260° (W) 20:37:38 437.485
YUBILEINY 24 Jun 20:40:41 20:43:20 12° 67° (ENE) 20:45:59 435.215
CUBEBUG 2 24 Jun 20:40:54 20:45:24 54° 261° (W) 20:50:03 437.445
AO-73 24 Jun 20:41:11 20:45:38 55° 71° (ENE) 20:50:07 145.935
CUTE 1.7 + AOD 2 24 Jun 20:45:01 20:48:34 25° 266° (W) 20:52:07 437.475
STRAND 1 24 Jun 20:48:37 20:53:46 64° 102° (ESE) 20:58:53 437.568
STARS 24 Jun 20:53:57 20:54:51 11° 306° (NW) 20:55:45 437.465
HO-68 24 Jun 21:03:41 21:09:52 30° 267° (W) 21:16:06 435.675
Oscar 11 24 Jun 21:10:10 21:14:31 83° 76° (ENE) 21:18:54 .
EO-88 24 Jun 21:13:41 21:16:08 17° 63° (ENE) 21:18:35 145.990 - 145.960
BEESAT 3 24 Jun 21:14:28 21:16:39 14° 111° (ESE) 21:18:51 437.485
ZACube-1 24 Jun 21:15:21 21:19:53 65° 259° (WSW) 21:24:29 437.345
XW-2A 24 Jun 21:15:40 21:16:58 12° 271° (W) 21:18:17 145.665 - 145.685
UWE-3 24 Jun 21:17:47 21:22:04 38° 264° (W) 21:26:27 435.000/436.395/437.385
FO-29 24 Jun 21:18:54 21:22:41 14° 80° (E) 21:26:27 435.910
RS-15 24 Jun 21:19:59 21:31:08 45° 110° (ESE) 21:42:26 29.354- 29.394
AAUSAT CUBESAT 2 24 Jun 21:25:07 21:28:42 28° 265° (W) 21:32:19 437.432
DELFI C3 24 Jun 21:28:18 21:31:52 35° 69° (ENE) 21:35:29 145.870
O/OREOS (USA 219) 24 Jun 21:30:16 21:32:30 14° 98° (E) 21:34:42 437.305
SO-50 24 Jun 21:35:35 21:38:32 17° 24° (NNE) 21:41:31 436.795
PCSat 24 Jun 21:39:21 21:44:49 72° 53° (NE) 21:50:13 145.827
UNISAT 6 24 Jun 21:58:34 21:59:36 11° 85° (E) 22:00:39 437.425
AO-85 24 Jun 22:03:40 22:07:41 70° 126° (SE) 22:11:36 145.980
BEESAT 2 24 Jun 22:09:38 22:12:29 19° 114° (ESE) 22:15:23 435.950
AO-73 24 Jun 22:18:55 22:22:12 19° 270° (W) 22:25:30 145.935
STRAND 1 24 Jun 22:28:37 22:32:31 22° 301° (WNW) 22:36:25 437.568
YUBILEINY 24 Jun 22:29:30 22:37:58 55° 90° (E) 22:46:31 435.215
EO-88 24 Jun 22:45:59 22:49:30 44° 261° (W) 22:53:03 145.990 - 145.960
Oscar 11 24 Jun 22:49:40 22:51:15 12° 273° (W) 22:52:51 .
BEESAT 3 24 Jun 22:49:42 22:53:42 74° 310° (NW) 22:57:45 437.485
TIGRISAT 24 Jun 22:50:54 22:55:05 31° 95° (E) 22:59:11 435.000
M-CUBED/EXP-1 PRIME 24 Jun 22:55:35 22:59:04 42° 106° (ESE) 23:02:47 437.505
FO-29 24 Jun 23:01:25 23:09:08 62° 100° (E) 23:16:53 435.910
DELFI C3 24 Jun 23:03:39 23:06:45 22° 267° (W) 23:09:52 145.870
NO-84 24 Jun 23:04:24 23:08:07 37° 136° (SE) 23:12:04 435.350 FM
PRISM 24 Jun 23:05:31 23:09:26 42° 99° (E) 23:13:20 437.425
O/OREOS (USA 219) 24 Jun 23:06:43 23:11:15 79° 296° (WNW) 23:15:49 437.305
LO-87 24 Jun 23:12:37 23:16:04 51° 73° (ENE) 23:19:34 145.935 - 145.965
SO-50 24 Jun 23:15:27 23:19:56 58° 47° (NE) 23:24:25 436.795
ESTCUBE 1 24 Jun 23:17:43 23:21:56 41° 68° (ENE) 23:26:10 437.505/2401.250
PCSat 24 Jun 23:23:41 23:27:40 21° 253° (WSW) 23:31:38 145.827
VELOX 1 24 Jun 23:26:30 23:29:04 15° 58° (ENE) 23:31:39 145.980
RS-15 24 Jun 23:30:49 23:43:06 72° 315° (NW) 23:55:30 29.354- 29.394
UNISAT 6 24 Jun 23:32:22 23:37:06 82° 104° (ESE) 23:41:43 437.425
AO-85 24 Jun 23:45:26 23:48:27 20° 326° (NNW) 23:51:28 145.980
BEESAT 2 24 Jun 23:45:56 23:49:53 57° 313° (NW) 23:53:54 435.950
DX 1 24 Jun 23:52:06 23:52:44 10° 54° (NE) 23:53:23 434.975-435.025
SPROUT 24 Jun 23:55:14 23:58:51 27° 65° (ENE) 00:02:30 437.525
NANOSAT C BR1 25 Jun 00:00:39 00:01:44 11° 87° (E) 00:02:48 145.865
UKube-1 25 Jun 00:11:02 00:12:14 11° 55° (NE) 00:13:26 .
AIST 2D 25 Jun 00:11:40 00:14:45 28° 96° (E) 00:17:46 435.315
YUBILEINY 25 Jun 00:26:56 00:35:06 41° 293° (WNW) 00:43:22 435.215
TIGRISAT 25 Jun 00:27:32 00:31:47 35° 293° (WNW) 00:35:57 435.000
BEESAT 3 25 Jun 00:29:20 00:31:58 17° 331° (NNW) 00:34:38 437.485
M-CUBED/EXP-1 PRIME 25 Jun 00:30:43 00:33:20 19° 301° (WNW) 00:36:04 437.505
POLYITAN 1 25 Jun 00:35:11 00:38:50 27° 94° (E) 00:42:27 437.675
PRISM 25 Jun 00:41:20 00:44:28 22° 297° (WNW) 00:47:36 437.425
NO-84 25 Jun 00:41:31 00:45:37 58° 337° (NNW) 00:49:56 435.350 FM
50 SAT 25 Jun 00:43:03 00:46:05 32° 69° (ENE) 00:49:08 437.505
QB50P2 25 Jun 00:45:43 00:49:43 36° 97° (E) 00:53:40 145.880/145.840
FO-29 25 Jun 00:46:53 00:53:47 38° 300° (WNW) 01:00:47 435.910
LO-87 25 Jun 00:48:06 00:49:50 13° 270° (W) 00:51:34 145.935 - 145.965
O/OREOS (USA 219) 25 Jun 00:48:57 00:51:27 14° 318° (NW) 00:53:58 437.305
ESTCUBE 1 25 Jun 00:55:11 00:58:53 25° 266° (W) 01:02:36 437.505/2401.250
SO-50 25 Jun 00:56:32 01:00:03 23° 245° (WSW) 01:03:35 436.795
VELOX 1 25 Jun 01:00:36 01:04:58 74° 257° (WSW) 01:09:23 145.980
BUGSAT 1 25 Jun 01:06:14 01:08:47 15° 90° (E) 01:11:18 437.445
UNISAT 6 25 Jun 01:10:25 01:13:10 16° 303° (WNW) 01:15:52 437.425
EO-79 25 Jun 01:10:30 01:14:45 60° 101° (E) 01:18:58 145.935-145.965
DX 1 25 Jun 01:23:49 01:28:07 71° 73° (ENE) 01:32:27 434.975-435.025
DUCHIFAT 1 25 Jun 01:25:52 01:30:08 71° 102° (ESE) 01:34:22 145.980
BEESAT 2 25 Jun 01:26:11 01:28:29 15° 334° (NNW) 01:30:49 435.950
SPROUT 25 Jun 01:30:45 01:34:39 35° 263° (W) 01:38:36 437.525
NANOSAT C BR1 25 Jun 01:33:46 01:38:04 87° 288° (WNW) 01:42:20 145.865
UKube-1 25 Jun 01:43:13 01:47:31 77° 73° (ENE) 01:51:50 .
Oscar 19 25 Jun 01:43:29 01:46:42 16° 89° (E) 01:49:53 437.125/150
AIST 2D 25 Jun 01:45:02 01:47:51 23° 293° (WNW) 01:50:38 435.315
RS-15 25 Jun 01:46:42 01:58:06 40° 346° (NNW) 02:09:26 29.354- 29.394
POLYITAN 1 25 Jun 02:10:46 02:14:41 35° 292° (WNW) 02:18:34 437.675
50 SAT 25 Jun 02:16:34 02:18:59 18° 267° (W) 02:21:24 437.505
NO-84 25 Jun 02:19:51 02:23:49 35° 358° (N) 02:27:53 435.350 FM
QB50P2 25 Jun 02:21:47 02:25:21 26° 295° (WNW) 02:28:56 145.880/145.840
MOZHAYETS 4 25 Jun 02:26:51 02:29:55 18° 59° (ENE) 02:32:59
Gurwin Techsat 1B 25 Jun 02:27:27 02:31:53 26° 93° (E) 02:36:18 435.225
YUBILEINY 25 Jun 02:33:29 02:35:09 11° 321° (NW) 02:36:49 435.215
ITUPSAT 1 25 Jun 02:34:43 02:38:56 31° 64° (ENE) 02:43:09 437.325
FO-29 25 Jun 02:35:07 02:36:46 11° 321° (NW) 02:38:25 435.910
BUGSAT 1 25 Jun 02:40:19 02:44:32 62° 288° (WNW) 02:48:43 437.445
BEESAT 25 Jun 02:45:10 02:49:36 38° 66° (ENE) 02:54:02 436.000
EO-79 25 Jun 02:47:14 02:50:06 18° 300° (WNW) 02:52:56 145.935-145.965
DX 1 25 Jun 03:02:33 03:04:47 14° 271° (W) 03:07:03 434.975-435.025
DUCHIFAT 1 25 Jun 03:02:47 03:05:17 15° 301° (WNW) 03:07:46 145.980
NANOSAT C BR1 25 Jun 03:11:26 03:13:06 12° 303° (WNW) 03:14:45 145.865
AO-85 25 Jun 03:12:22 03:12:44 10° 17° (NNE) 03:13:06 145.980
Oscar 19 25 Jun 03:21:28 03:26:37 76° 286° (WNW) 03:31:43 437.125/150
UKube-1 25 Jun 03:22:13 03:24:05 13° 272° (W) 03:25:58 .
AO-7 25 Jun 03:39:48 03:46:07 23° 90° (E) 03:52:23 .
BEESAT 3 25 Jun 03:49:26 03:50:40 11° 19° (NNE) 03:51:55 437.485
ITAMSAT 1 25 Jun 03:57:12 04:01:21 23° 92° (E) 04:05:26 435.822/435.867
NO-84 25 Jun 03:57:50 04:02:05 49° 19° (NNE) 04:06:21 435.350 FM
MOZHAYETS 4 25 Jun 04:01:57 04:06:34 69° 258° (WSW) 04:11:14
RS-15 25 Jun 04:02:53 04:14:29 42° 20° (NNE) 04:25:40 29.354- 29.394
Gurwin Techsat 1B 25 Jun 04:06:57 04:12:06 51° 292° (WNW) 04:17:14 435.225
KKS-1 25 Jun 04:07:16 04:10:46 23° 62° (ENE) 04:14:17 437.445
ITUPSAT 1 25 Jun 04:12:12 04:16:40 38° 263° (W) 04:21:10 437.325
BEESAT 25 Jun 04:23:15 04:27:26 30° 265° (W) 04:31:40 436.000
STARS 25 Jun 04:39:53 04:43:15 22° 62° (ENE) 04:46:39 437.465
CUBESAT XI-V 25 Jun 04:40:18 04:44:52 61° 72° (ENE) 04:49:26 437.345
BEESAT 2 25 Jun 04:45:43 04:47:36 13° 23° (NNE) 04:49:29 435.950
AO-85 25 Jun 04:50:47 04:54:22 30° 40° (NE) 04:58:06 145.980
Oscar 19 25 Jun 05:02:35 05:05:06 14° 307° (NW) 05:07:37 437.125/150
BEESAT 3 25 Jun 05:25:42 05:29:25 34° 41° (NE) 05:33:06 437.485
AO-7 25 Jun 05:31:31 05:39:58 90° 124° (ESE) 05:48:22 .
NO-84 25 Jun 05:35:31 05:39:49 54° 219° (SW) 05:44:00 435.350 FM
ITAMSAT 1 25 Jun 05:36:01 05:41:10 57° 291° (WNW) 05:46:16 435.822/435.867
DOVE 4 25 Jun 05:38:20 05:40:26 13° 87° (E) 05:42:35 437.250
KKS-1 25 Jun 05:42:50 05:47:04 45° 261° (W) 05:51:22 437.445
Gurwin Techsat 1B 25 Jun 05:50:45 05:50:53 10° 312° (NW) 05:51:02 435.225
O/OREOS (USA 219) 25 Jun 05:56:49 05:57:36 10° 37° (NE) 05:58:23 437.305
STARS 25 Jun 06:15:05 06:19:19 47° 260° (W) 06:23:36 437.465
RS-15 25 Jun 06:16:35 06:28:58 83° 50° (NE) 06:40:41 29.354- 29.394
CUBESAT XI-V 25 Jun 06:19:32 06:22:39 18° 270° (W) 06:25:46 437.345
LilacSat-2 25 Jun 06:19:52 06:21:00 11° 88° (E) 06:22:06 437.200
XW-2B 25 Jun 06:21:50 06:22:48 11° 88° (E) 06:23:44 145.730 - 145.750
BEESAT 2 25 Jun 06:22:27 06:26:23 44° 44° (NE) 06:30:16 435.950
STRAND 1 25 Jun 06:30:51 06:34:45 22° 59° (ENE) 06:38:40 437.568
AO-85 25 Jun 06:30:59 06:34:51 42° 239° (WSW) 06:38:56 145.980
CUTE-I 25 Jun 06:33:46 06:37:22 18° 89° (E) 06:40:55 437.470
XW-2C 25 Jun 06:36:03 06:38:26 16° 91° (E) 06:40:49 145.795 - 145.815
KAITUO 1B 25 Jun 06:52:12 06:54:52 18° 92° (E) 06:57:30 145.475/437.950
BEESAT 3 25 Jun 07:03:21 07:07:00 34° 241° (WSW) 07:10:36 437.485
DOVE 4 25 Jun 07:13:53 07:18:44 87° 104° (ESE) 07:23:51 437.250
NO-84 25 Jun 07:15:31 07:16:34 11° 237° (WSW) 07:17:36 435.350 FM
ITAMSAT 1 25 Jun 07:18:10 07:19:33 11° 311° (NW) 07:20:56 435.822/435.867
AO-7 25 Jun 07:25:06 07:31:48 28° 313° (NW) 07:38:31 .
NUDT-PHONESAT 25 Jun 07:28:31 07:32:06 45° 99° (E) 07:35:39 437.300
O/OREOS (USA 219) 25 Jun 07:33:44 07:38:08 51° 59° (ENE) 07:42:29 437.305
FO-29 25 Jun 07:39:25 07:40:38 11° 38° (NE) 07:41:53 435.910
XW-2F 25 Jun 07:41:18 07:45:05 81° 104° (ESE) 07:48:49 145.980 - 146.000
XW-2D 25 Jun 07:44:41 07:48:29 86° 284° (WNW) 07:52:14 145.860 - 145.880
LilacSat-2 25 Jun 07:51:57 07:55:45 69° 286° (WNW) 07:59:30 437.200
XW-2B 25 Jun 07:53:41 07:57:28 70° 286° (WNW) 08:01:12 145.730 - 145.750
BEESAT 2 25 Jun 08:00:34 08:03:57 26° 244° (WSW) 08:07:19 435.950
STRAND 1 25 Jun 08:08:24 08:13:30 63° 258° (WSW) 08:18:39 437.568
XW-2C 25 Jun 08:09:15 08:12:53 46° 289° (WNW) 08:16:29 145.795 - 145.815
SEEDS 25 Jun 08:09:48 08:12:50 19° 91° (E) 08:15:51 437.485
CUTE-I 25 Jun 08:12:36 08:17:59 76° 288° (WNW) 08:23:21 437.470
M-CUBED/EXP-1 PRIME 25 Jun 08:14:05 08:14:49 11° 53° (NE) 08:15:33 437.505
CUTE 1.7 + AOD 2 25 Jun 08:25:02 08:29:02 41° 98° (E) 08:33:00 437.475
HO-68 25 Jun 08:25:32 08:32:27 46° 99° (E) 08:39:16 435.675
KAITUO 1B 25 Jun 08:25:33 08:29:02 38° 290° (WNW) 08:32:28 145.475/437.950
CUBEBUG 2 25 Jun 08:28:03 08:32:04 27° 93° (E) 08:36:00 437.445
RS-15 25 Jun 08:29:57 08:40:14 35° 255° (WSW) 08:50:07 29.354- 29.394
XW-2A 25 Jun 08:31:16 08:34:24 32° 97° (E) 08:37:29 145.665 - 145.685
YUBILEINY 25 Jun 08:34:40 08:42:36 35° 64° (ENE) 08:50:25 435.215
DOVE 4 25 Jun 08:53:02 08:55:51 16° 301° (WNW) 08:58:45 437.250
Oscar 11 25 Jun 08:55:27 08:57:02 12° 87° (E) 08:58:38 .
UNISAT 6 25 Jun 08:59:57 09:02:53 17° 58° (ENE) 09:05:50 437.425
ZACube-1 25 Jun 09:00:34 09:03:51 20° 90° (E) 09:07:05 437.345
AAUSAT CUBESAT 2 25 Jun 09:02:40 09:06:23 32° 96° (E) 09:10:05 437.432
NUDT-PHONESAT 25 Jun 09:03:14 09:05:41 17° 297° (WNW) 09:08:06 437.300
UWE-3 25 Jun 09:03:16 09:07:32 35° 95° (E) 09:11:40 435.000/436.395/437.385
O/OREOS (USA 219) 25 Jun 09:13:52 09:17:11 21° 258° (WSW) 09:20:28 437.305
XW-2F 25 Jun 09:17:33 09:18:37 11° 301° (WNW) 09:19:41 145.980 - 146.000
FO-29 25 Jun 09:17:54 09:23:40 40° 62° (ENE) 09:30:08 435.910
SEEDS 25 Jun 09:44:46 09:48:45 45° 290° (WNW) 09:52:43 437.485
M-CUBED/EXP-1 PRIME 25 Jun 09:45:33 09:48:50 69° 252° (WSW) 09:52:06 437.505
TIGRISAT 25 Jun 09:52:46 09:57:07 43° 69° (ENE) 10:01:34 435.000
CUTE-I 25 Jun 09:54:19 09:57:11 15° 307° (NW) 10:00:02 437.470
PRISM 25 Jun 09:58:08 10:02:03 51° 71° (ENE) 10:06:01 437.425
Tancredo 1 25 Jun 09:59:38 10:02:35 52° 153° (SSE) 10:05:34 437.200
AO-73 25 Jun 10:01:20 10:05:49 68° 102° (ESE) 10:10:10 145.935
CUTE 1.7 + AOD 2 25 Jun 10:01:21 10:04:39 23° 296° (WNW) 10:07:57 437.475
CUBEBUG 2 25 Jun 10:04:21 10:08:49 41° 292° (WNW) 10:13:11 437.445
XW-2A 25 Jun 10:04:27 10:06:56 19° 295° (WNW) 10:09:25 145.665 - 145.685
ISS 25 Jun 10:10:15 10:13:20 38° 147° (SSE) 10:16:25 437.550
EO-88 25 Jun 10:12:20 10:13:51 12° 89° (E) 10:15:20 145.990 - 145.960
HO-68 25 Jun 10:13:27 10:20:09 44° 299° (WNW) 10:26:48 435.675
Oscar 11 25 Jun 10:29:26 10:33:46 81° 287° (WNW) 10:38:04 .
YUBILEINY 25 Jun 10:31:20 10:40:03 66° 267° (W) 10:48:42 435.215
UNISAT 6 25 Jun 10:34:24 10:39:01 75° 258° (WSW) 10:43:44 437.425
EO-79 25 Jun 10:34:48 10:35:24 10° 55° (NE) 10:36:00 145.935-145.965
DELFI C3 25 Jun 10:35:44 10:39:20 33° 97° (E) 10:42:55 145.870
ZACube-1 25 Jun 10:36:04 10:40:27 51° 289° (WNW) 10:44:43 437.345
AAUSAT CUBESAT 2 25 Jun 10:38:17 10:41:45 27° 294° (WNW) 10:45:13 437.432
UWE-3 25 Jun 10:39:51 10:43:54 30° 295° (WNW) 10:47:51 435.000/436.395/437.385
DUCHIFAT 1 25 Jun 10:48:40 10:50:07 12° 56° (NE) 10:51:36 145.980
AIST 2D 25 Jun 10:49:55 10:52:35 20° 66° (ENE) 10:55:15 435.315
NANOSAT C BR1 25 Jun 10:55:45 10:58:09 15° 59° (ENE) 11:00:33 145.865
FO-29 25 Jun 11:02:48 11:08:39 45° 265° (W) 11:15:18 435.910
TIGRISAT 25 Jun 11:30:08 11:33:57 25° 267° (W) 11:37:52 435.000
POLYITAN 1 25 Jun 11:31:05 11:34:55 33° 67° (ENE) 11:38:48 437.675
PRISM 25 Jun 11:34:59 11:37:38 17° 269° (W) 11:40:19 437.425
Tancredo 1 25 Jun 11:35:14 11:38:13 51° 351° (N) 11:41:13 437.200
AO-73 25 Jun 11:38:41 11:41:31 17° 301° (WNW) 11:44:19 145.935
QB50P2 25 Jun 11:41:37 11:45:40 44° 70° (ENE) 11:49:46 145.880/145.840
EO-88 25 Jun 11:44:17 11:47:54 58° 286° (WNW) 11:51:28 145.990 - 145.960
ISS 25 Jun 11:46:28 11:49:44 62° 347° (NNW) 11:53:02 437.550
BUGSAT 1 25 Jun 11:59:29 12:02:23 19° 61° (ENE) 12:05:19 437.445
HO-68 25 Jun 12:03:37 12:06:05 12° 322° (NW) 12:08:34 435.675
EO-79 25 Jun 12:06:08 12:10:22 73° 75° (ENE) 12:14:39 145.935-145.965
Oscar 11 25 Jun 12:07:47 12:09:10 11° 304° (NW) 12:10:34 .
LO-87 25 Jun 12:08:58 12:12:23 37° 98° (E) 12:15:48 145.935 - 145.965
DELFI C3 25 Jun 12:10:46 12:13:58 24° 295° (WNW) 12:17:10 145.870
Gurwin Techsat 1B 25 Jun 12:16:42 12:18:25 12° 50° (NE) 12:20:08 435.225
DUCHIFAT 1 25 Jun 12:20:51 12:25:05 84° 75° (ENE) 12:29:22 145.980
AIST 2D 25 Jun 12:22:22 12:25:37 33° 263° (W) 12:28:53 435.315
PCSat 25 Jun 12:25:25 12:30:01 29° 111° (ESE) 12:34:36 145.827
NANOSAT C BR1 25 Jun 12:29:05 12:33:19 73° 258° (WSW) 12:37:36 145.865
YUBILEINY 25 Jun 12:30:40 12:35:02 15° 290° (WNW) 12:39:23 435.215
ESTCUBE 1 25 Jun 12:42:32 12:46:55 51° 100° (E) 12:51:17 437.505/2401.250
VELOX 1 25 Jun 12:47:39 12:50:23 16° 90° (E) 12:53:08 145.980
AO-7 25 Jun 12:55:19 12:59:39 15° 34° (NNE) 13:03:59 .
Oscar 19 25 Jun 13:03:32 13:08:12 36° 65° (ENE) 13:12:53 437.125/150
POLYITAN 1 25 Jun 13:07:01 13:10:44 28° 265° (W) 13:14:28 437.675
Tancredo 1 25 Jun 13:11:06 13:14:06 54° 11° (N) 13:17:06 437.200
SPROUT 25 Jun 13:12:11 13:15:59 29° 95° (E) 13:19:45 437.525
QB50P2 25 Jun 13:18:26 13:21:40 21° 268° (W) 13:24:57 145.880/145.840
ISS 25 Jun 13:23:17 13:26:30 51° 7° (N) 13:29:45 437.550
BUGSAT 1 25 Jun 13:33:19 13:37:22 53° 260° (W) 13:41:30 437.445
50 SAT 25 Jun 13:34:31 13:37:01 19° 93° (E) 13:39:31 437.505
LO-87 25 Jun 13:42:57 13:45:36 19° 295° (WNW) 13:48:14 145.935 - 145.965
EO-79 25 Jun 13:44:37 13:46:39 13° 272° (W) 13:48:41 145.935-145.965
Gurwin Techsat 1B 25 Jun 13:52:06 13:57:19 59° 70° (ENE) 14:02:33 435.225
DUCHIFAT 1 25 Jun 14:00:02 14:01:22 11° 273° (W) 14:02:40 145.980
PCSat 25 Jun 14:07:48 14:13:07 55° 310° (NW) 14:18:29 145.827
ESTCUBE 1 25 Jun 14:20:02 14:23:24 21° 298° (WNW) 14:26:45 437.505/2401.250
VELOX 1 25 Jun 14:22:52 14:27:16 63° 288° (WNW) 14:31:38 145.980
AO-7 25 Jun 14:42:37 14:50:25 47° 58° (ENE) 14:58:16 .
Oscar 19 25 Jun 14:42:48 14:47:31 36° 263° (W) 14:52:15 437.125/150
DX 1 25 Jun 14:43:57 14:48:21 77° 104° (ESE) 14:52:43 434.975-435.025
Tancredo 1 25 Jun 14:46:45 14:49:41 45° 210° (SSW) 14:52:37 437.200
SPROUT 25 Jun 14:48:02 14:51:53 32° 294° (WNW) 14:55:43 437.525
ISS 25 Jun 14:59:49 15:03:06 65° 206° (SSW) 15:06:22 437.550
UKube-1 25 Jun 15:02:05 15:06:26 81° 106° (ESE) 15:10:45 .
50 SAT 25 Jun 15:06:50 15:09:53 31° 291° (WNW) 15:12:57 437.505
SO-50 25 Jun 15:13:15 15:17:34 44° 121° (ESE) 15:21:53 436.795
ITAMSAT 1 25 Jun 15:18:37 15:23:38 51° 68° (ENE) 15:28:43 435.822/435.867
